TimeCST,TemperatureF,Dew PointF,Humidity,Sea Level PressureIn,VisibilityMPH,Wind Direction,Wind SpeedMPH,Gust SpeedMPH,PrecipitationIn,Events,Conditions,WindDirDegrees,DateUTC
12:53 AM,27.0,21.0,78,30.14,10.0,WSW,4.6,-,N/A,,Mostly Cloudy,250,2013-11-26 06:53:00
1:53 AM,27.0,21.0,78,30.14,10.0,SW,4.6,-,N/A,,Overcast,230,2013-11-26 07:53:00
2:53 AM,26.1,21.0,81,30.12,10.0,West,3.5,-,N/A,,Clear,270,2013-11-26 08:53:00
3:53 AM,26.1,23.0,88,30.12,10.0,WSW,3.5,-,N/A,,Overcast,250,2013-11-26 09:53:00
4:53 AM,28.0,24.1,85,30.14,9.0,Calm,Calm,-,N/A,,Overcast,0,2013-11-26 10:53:00
5:53 AM,27.0,23.0,85,30.13,10.0,WNW,4.6,-,N/A,,Mostly Cloudy,300,2013-11-26 11:53:00
6:53 AM,25.0,21.9,88,30.13,10.0,NW,5.8,-,N/A,,Clear,320,2013-11-26 12:53:00
7:53 AM,28.0,23.0,81,30.14,10.0,NW,6.9,-,N/A,,Mostly Cloudy,320,2013-11-26 13:53:00
8:53 AM,30.9,24.1,76,30.16,10.0,NW,5.8,-,N/A,,Overcast,320,2013-11-26 14:53:00
9:53 AM,32.0,24.1,73,30.17,10.0,NW,8.1,-,N/A,,Overcast,320,2013-11-26 15:53:00
10:34 AM,32.0,23.0,69,30.15,9.0,NW,11.5,21.9,N/A,,Overcast,320,2013-11-26 16:34:00
10:53 AM,30.9,21.9,69,30.17,9.0,NW,12.7,25.3,N/A,,Overcast,320,2013-11-26 16:53:00
11:11 AM,30.2,21.2,69,30.14,10.0,NNW,16.1,27.6,N/A,,Overcast,330,2013-11-26 17:11:00
11:53 AM,32.0,21.0,64,30.16,10.0,NW,17.3,25.3,N/A,,Overcast,320,2013-11-26 17:53:00
12:53 PM,30.9,18.0,59,30.18,10.0,NNW,16.1,24.2,N/A,,Overcast,330,2013-11-26 18:53:00
1:53 PM,32.0,16.0,52,30.17,10.0,NW,16.1,26.5,N/A,,Mostly Cloudy,320,2013-11-26 19:53:00
2:53 PM,30.0,12.9,49,30.19,10.0,NNW,16.1,28.8,N/A,,Clear,340,2013-11-26 20:53:00
3:53 PM,27.0,8.1,45,30.21,8.0,NNW,13.8,26.5,N/A,,Clear,330,2013-11-26 21:53:00
4:17 PM,26.6,8.6,47,30.19,9.0,NW,17.3,27.6,N/A,,Partly Cloudy,320,2013-11-26 22:17:00
4:53 PM,25.0,7.0,46,30.24,10.0,NNW,17.3,29.9,N/A,,Clear,330,2013-11-26 22:53:00
5:53 PM,24.1,8.1,51,30.26,10.0,NNW,15.0,21.9,N/A,,Partly Cloudy,330,2013-11-26 23:53:00
6:53 PM,24.1,9.0,53,30.27,10.0,NNW,18.4,27.6,N/A,,Overcast,340,2013-11-27 00:53:00
7:53 PM,21.9,8.1,55,30.29,10.0,NNW,16.1,21.9,N/A,,Mostly Cloudy,340,2013-11-27 01:53:00
8:53 PM,21.9,8.1,55,30.29,10.0,NNW,13.8,25.3,N/A,,Partly Cloudy,340,2013-11-27 02:53:00
9:53 PM,19.9,8.1,60,30.30,10.0,NNW,10.4,-,N/A,,Scattered Clouds,340,2013-11-27 03:53:00
10:53 PM,19.0,7.0,59,30.31,10.0,NNW,11.5,-,N/A,,Clear,340,2013-11-27 04:53:00
11:53 PM,18.0,7.0,62,30.31,10.0,NNW,9.2,-,N/A,,Clear,330,2013-11-27 05:53:00